Driggs, ID

10:19 PM MDT on June 25, 2017 (GMT -0600)
Driggs

Weather History for KDIJ - October, 2013

Change the Weather History Date:

Wednesday, October 16, 2013

  Actual Average (KJAC) Record (KJAC)
Temperature  
Mean Temperature 32 °F -  
Max Temperature 45 °F 53 °F 71 °F (1991)
Min Temperature 20 °F 22 °F 9 °F (1984)
Degree Days  
Heating Degree Days 32    
Moisture  
Dew Point 24 °F    
Average Humidity 71    
Maximum Humidity 91    
Minimum Humidity 44    
Precipitation  
Precipitation 0.00 in - - ()
Sea Level Pressure  
Sea Level Pressure 30.17 in    
Wind  
Wind Speed 4 mph (SSE)    
Max Wind Speed 9 mph    
Max Gust Speed -    
Visibility 9 miles    
Events      
Averages and records for this station are not official NWS values.
T = Trace of Precipitation, MM = Missing Value Source: NWS Daily Summary

Daily Weather History Graph

Daily Weather History Graph

Search for Another Location

Airport or City:

Trip Planner

Search our weather history database for the weather conditions in past years. The results will help you decide how hot, cold, wet, or windy it might be!

Date:

Astronomy

Oct. 16, 2013 Rise Set
Actual Time 7:40 AM MDT 6:38 PM MDT
Civil Twilight 7:11 AM MDT 7:07 PM MDT
Nautical Twilight 6:37 AM MDT 7:40 PM MDT
Astronomical Twilight 6:04 AM MDT 8:14 PM MDT
Moon 5:23 PM MDT (10/16) 5:08 AM MDT (10/16)
Length of Visible Light 11h 56m
Length of Day
10h 58m
Waxing Gibbous, 94% of the Moon is Illuminated
Oct 16
Waxing Gibbous
Oct 18
Full
Oct 26
Last Quarter
Nov 3
New
Nov 9
First Quarter

Hourly Weather History & Observations

Time (MDT) Temp. Windchill Dew Point Humidity Pressure Visibility Wind Dir Wind Speed Gust Speed Precip Events Conditions
12:56 AM 25.2 °F 20.9 °F 23.0 °F 91% 30.22 in 10.0 mi East 3.5 mph - N/A   Clear
1:56 AM 25.2 °F 20.9 °F 22.1 °F 88% 30.21 in 9.0 mi West 3.5 mph - N/A   Clear
2:56 AM 24.1 °F 15.2 °F 21.0 °F 88% 30.21 in 10.0 mi East 8.1 mph - N/A   Clear
3:56 AM 24.1 °F 19.7 °F 21.0 °F 88% 30.19 in 10.0 mi SE 3.5 mph - N/A   Clear
4:56 AM 22.1 °F - 19.0 °F 88% 30.20 in 9.0 mi Calm Calm - N/A   Clear
5:56 AM 24.1 °F - 19.0 °F 81% 30.18 in 10.0 mi Calm Calm - N/A   Clear
6:56 AM 20.1 °F - 17.1 °F 88% 30.21 in 9.0 mi Calm Calm - N/A   Clear
7:56 AM 22.1 °F - 19.0 °F 88% 30.25 in 8.0 mi Calm Calm - N/A   Clear
8:56 AM 30.0 °F - 25.2 °F 82% 30.23 in 9.0 mi Calm Calm - N/A   Clear
9:56 AM 31.1 °F - 26.1 °F 82% 30.24 in 8.0 mi Calm Calm - N/A   Clear
10:56 AM 38.8 °F 32.6 °F 27.1 °F 63% 30.20 in 8.0 mi SSW 9.2 mph - N/A   Clear
11:56 AM 41.9 °F 38.2 °F 25.2 °F 52% 30.17 in 9.0 mi South 5.8 mph - N/A   Clear
12:56 PM 41.9 °F 40.0 °F 25.2 °F 52% 30.17 in 8.0 mi West 3.5 mph - N/A   Partly Cloudy
1:56 PM 43.9 °F 41.3 °F 26.1 °F 50% 30.14 in 9.0 mi Variable 4.6 mph - N/A   Scattered Clouds
2:56 PM 45.0 °F 41.8 °F 27.1 °F 50% 30.13 in 8.0 mi Variable 5.8 mph - N/A   Scattered Clouds
3:56 PM 45.9 °F 42.9 °F 25.2 °F 44% 30.12 in 8.0 mi Variable 5.8 mph - N/A   Mostly Cloudy
4:56 PM 43.9 °F 42.3 °F 23.0 °F 44% 30.14 in 10.0 mi SSW 3.5 mph - N/A   Clear
5:56 PM 43.9 °F 39.3 °F 23.0 °F 44% 30.12 in 9.0 mi West 8.1 mph - N/A   Partly Cloudy
6:56 PM 38.8 °F 36.5 °F 25.2 °F 58% 30.16 in 9.0 mi NW 3.5 mph - N/A   Mostly Cloudy
7:56 PM 32.9 °F 26.7 °F 27.1 °F 79% 30.18 in 10.0 mi ENE 6.9 mph - N/A   Overcast
8:56 PM 32.9 °F 25.3 °F 27.1 °F 79% 30.15 in 10.0 mi East 9.2 mph - N/A   Mostly Cloudy
9:56 PM 34.0 °F 28.8 °F 26.1 °F 73% 30.14 in 10.0 mi East 5.8 mph - N/A   Mostly Cloudy
10:56 PM 34.0 °F 31.0 °F 26.1 °F 73% 30.10 in 10.0 mi SE 3.5 mph - N/A   Overcast
11:56 PM 31.1 °F - 26.1 °F 82% 30.10 in 9.0 mi Calm Calm - N/A   Overcast